Weather reports worldwide

Advertisment
Charlwood, United Kingdom (3769): temperature & dewpoint: 21.04.2017 04:00:00 - 27.04.2017 04:00:00 (BST)Charlwood, United Kingdom (3769): temperature -20cm & temperature -100cm: 21.04.2017 04:00:00 - 27.04.2017 04:00:00 (BST)Charlwood, United Kingdom (3769): wind speed: 21.04.2017 04:00:00 - 27.04.2017 04:00:00 (BST)Charlwood, United Kingdom (3769): wind direction: 21.04.2017 04:00:00 - 27.04.2017 04:00:00 (BST)Charlwood, United Kingdom (3769): reduced air pressure: 21.04.2017 04:00:00 - 27.04.2017 04:00:00 (BST)Charlwood, United Kingdom (3769): visibility: 21.04.2017 04:00:00 - 27.04.2017 04:00:00 (BST)Charlwood, United Kingdom (3769): sunshine duration: 21.04.2017 04:00:00 - 27.04.2017 04:00:00 (BST)Charlwood, United Kingdom (3769): precipitation: 21.04.2017 04:00:00 - 27.04.2017 04:00:00 (BST)
Date & Time tt [°C] td [°C] tt -20cm [°C] tt -100cm [°C] ff [km/h] ff [kn] dd ppp [hPa] vv [km] sd [min] rr [mm]
27.04.2017 04:00:00 - - - - - - - - - - 0,0
27.04.2017 03:00:00 1,3 0,2 - - 5 3 NW 1020,6 16 0 0,0
27.04.2017 02:00:00 0,7 -0,1 - - 4 2 NNW 1020,7 20 0 0,0
27.04.2017 01:00:00 0,5 -0,2 - - 4 2 NNW 1020,7 21 - 0,0
27.04.2017 00:00:00 0,6 -0,2 - - 2 1 WNW 1020,7 22 0 0,0
26.04.2017 23:00:00 0,9 0,0 - - 2 1 NW 1020,6 35 0 0,0
26.04.2017 22:00:00 2,2 0,5 - - 4 2 NNW 1020,5 45 0 0,0
26.04.2017 21:00:00 3,5 0,7 - - 2 1 N 1019,9 35 0 0,0
26.04.2017 20:00:00 5,7 1,1 - - 15 8 N 1019,5 24 12 0,0
26.04.2017 19:00:00 6,1 1,8 - - 11 6 NE 1018,9 50 18 0,0
26.04.2017 18:00:00 6,4 1,5 - - 8 4 N 1018,5 45 12 0,0
26.04.2017 17:00:00 7,6 1,2 - - 8 4 NW 1018,0 45 36 0,0
26.04.2017 16:00:00 6,6 3,2 - - 9 5 N 1018,2 40 6 0,2
26.04.2017 15:00:00 8,8 1,6 - - 21 11 NNE 1017,9 40 24 0,0
26.04.2017 14:00:00 9,9 -0,5 - - 11 6 N 1017,3 30 42 0,0
26.04.2017 13:00:00 9,5 -0,4 - - 18 10 N 1017,3 22 54 0,0
26.04.2017 12:00:00 8,4 0,9 - - 11 6 N 1017,5 23 12 0,0
26.04.2017 11:00:00 6,9 1,4 - - 11 6 N 1017,6 24 0 0,0
26.04.2017 10:00:00 6,0 1,3 12,0 10,5 13 7 N 1017,6 23 6 0,0
26.04.2017 09:00:00 4,4 1,1 - - 13 7 N 1017,5 21 0 0,0
26.04.2017 08:00:00 3,8 1,3 - - 8 4 N 1017,0 23 0 0,0
26.04.2017 07:00:00 3,0 0,9 - - 5 3 NNW 1016,5 17 0 0,0
26.04.2017 06:00:00 2,3 0,6 - - 5 3 NNW 1016,0 12 0 0,0
26.04.2017 05:00:00 1,4 0,2 - - 5 3 NNW 1015,8 11 0 0,0
26.04.2017 04:00:00 1,4 0,2 - - 5 3 NW 1015,9 11 0 0,0
26.04.2017 03:00:00 1,2 0,2 - - 4 2 NW 1015,9 16 0 0,0
26.04.2017 02:00:00 1,3 0,1 - - 5 3 WNW 1015,9 15 0 0,0
26.04.2017 01:00:00 1,5 0,1 - - 4 2 WNW 1016,0 17 - 0,0
26.04.2017 00:00:00 2,1 0,3 - - 5 3 WNW 1015,8 50 0 0,0
25.04.2017 23:00:00 2,5 -0,1 - - 5 3 NW 1015,4 50 0 0,0
25.04.2017 22:00:00 3,2 -0,3 - - 4 2 NNW 1015,0 50 0 0,0
25.04.2017 21:00:00 4,5 -0,3 - - 5 3 N 1014,4 45 0 0,0
25.04.2017 20:00:00 6,7 -1,5 - - 13 7 N 1013,6 45 30 0,0
25.04.2017 19:00:00 8,3 -1,6 - - 16 9 NNE 1013,1 45 54 0,0
25.04.2017 18:00:00 9,6 -4,1 - - 9 5 N 1012,7 40 42 0,0
25.04.2017 17:00:00 10,1 -5,4 - - 9 5 N 1012,9 50 60 0,0
25.04.2017 16:00:00 9,7 -6,5 - - 11 6 N 1013,2 45 42 0,0
25.04.2017 15:00:00 10,1 -4,2 - - 13 7 N 1013,7 35 42 0,0
25.04.2017 14:00:00 8,9 -4,4 - - 11 6 N 1013,8 35 36 0,0
25.04.2017 13:00:00 8,2 -4,9 - - 11 6 N 1013,9 40 36 0,0
25.04.2017 12:00:00 8,3 -4,0 - - 9 5 N 1014,1 35 54 0,0
25.04.2017 11:00:00 7,7 -3,6 - - 9 5 NNW 1014,0 29 54 0,0
25.04.2017 10:00:00 6,1 -2,6 12,0 10,4 9 5 NNW 1014,1 45 48 0,0
25.04.2017 09:00:00 5,1 -1,6 - - 11 6 NNW 1013,9 35 60 0,0
25.04.2017 08:00:00 4,0 -1,9 - - 8 4 NW 1013,8 40 36 0,0
25.04.2017 07:00:00 1,2 -2,9 - - 5 3 WNW 1013,7 35 6 0,0
25.04.2017 06:00:00 -0,7 -4,3 - - 4 2 W 1013,4 30 0 0,0
25.04.2017 05:00:00 0,8 -4,0 - - 5 3 WNW 1013,2 30 0 0,0
25.04.2017 04:00:00 1,5 -4,0 - - 5 3 WNW 1013,2 30 0 0,0
25.04.2017 03:00:00 2,4 -4,3 - - 5 3 WNW 1013,3 35 0 0,0
25.04.2017 02:00:00 3,5 -5,0 - - 9 5 NW 1013,4 45 0 0,0
25.04.2017 01:00:00 4,7 -5,0 - - 11 6 NW 1013,4 40 - 0,0
25.04.2017 00:00:00 6,2 -6,4 - - 9 5 NNW 1013,2 45 0 0,0
24.04.2017 23:00:00 7,8 -1,9 - - 8 4 NW 1012,9 50 0 0,0
24.04.2017 22:00:00 8,5 1,6 - - 9 5 NNW 1012,9 50 0 0,0
24.04.2017 21:00:00 8,6 5,1 - - 5 3 WNW 1012,7 35 0 0,0
24.04.2017 20:00:00 9,5 5,4 - - 8 4 NNW 1012,3 50 0 0,0
24.04.2017 19:00:00 10,8 5,8 - - 9 5 WNW 1012,1 35 0 0,0
24.04.2017 18:00:00 11,6 6,3 - - 5 3 W 1012,3 40 0 0,0
24.04.2017 17:00:00 11,8 5,2 - - 9 5 WNW 1012,7 35 0 0,0
24.04.2017 16:00:00 12,7 6,5 - - 9 5 W 1013,1 40 0 0,0
24.04.2017 15:00:00 12,9 6,0 - - 8 4 W 1013,9 45 0 0,0
24.04.2017 14:00:00 13,0 5,2 - - 11 6 W 1014,7 50 0 0,0
24.04.2017 13:00:00 13,3 5,5 - - 11 6 W 1015,3 50 0 0,0
24.04.2017 12:00:00 13,2 6,8 - - 9 5 W 1016,2 24 0 0,0
24.04.2017 11:00:00 13,8 6,8 - - 8 4 WSW 1016,6 35 42 0,0
24.04.2017 10:00:00 11,9 7,4 12,4 10,4 8 4 WSW 1017,3 28 12 0,0
24.04.2017 09:00:00 11,2 7,7 - - 5 3 S 1017,6 19 30 0,0
24.04.2017 08:00:00 8,6 6,8 - - 4 2 WSW 1018,3 10 0 0,0
24.04.2017 07:00:00 8,0 6,7 - - 2 1 SW 1018,4 7 0 0,0
24.04.2017 06:00:00 8,1 7,0 - - 2 1 WNW 1018,7 4,4 0 0,0
24.04.2017 05:00:00 8,2 7,6 - - 8 4 WSW 1019,1 3,2 0 0,0
24.04.2017 04:00:00 8,1 7,7 - - 5 3 WSW 1019,6 2,1 0 0,0
24.04.2017 03:00:00 7,9 7,6 - - 9 5 SW 1020,3 1,9 0 0,0
24.04.2017 02:00:00 7,7 7,5 - - 9 5 SW 1021,0 2,3 0 0,0
24.04.2017 01:00:00 7,1 6,9 - - 8 4 SW 1021,8 2,3 - 0,0
24.04.2017 00:00:00 4,4 3,7 - - 2 1 SSW 1022,6 0,9 0 0,0
23.04.2017 23:00:00 6,2 5,5 - - 4 2 SW 1023,0 3,5 0 0,0
23.04.2017 22:00:00 6,9 5,6 - - 4 2 SW 1023,4 5 0 0,0
23.04.2017 21:00:00 8,0 6,2 - - 5 3 SW 1023,7 8 0 0,0
23.04.2017 20:00:00 9,7 6,0 - - 8 4 SSW 1023,4 13 0 0,0
23.04.2017 19:00:00 11,6 6,6 - - 11 6 SSW 1023,6 13 30 0,0
23.04.2017 18:00:00 12,3 7,6 - - 13 7 SSW 1023,9 12 18 0,0
23.04.2017 17:00:00 12,4 7,4 - - 15 8 S 1024,3 14 6 0,0
23.04.2017 16:00:00 13,3 7,3 - - 11 6 S 1024,8 19 6 0,0
23.04.2017 15:00:00 14,2 7,4 - - 13 7 S 1025,2 20 30 0,0
23.04.2017 14:00:00 13,0 6,8 - - 13 7 SSW 1025,9 25 18 0,0
23.04.2017 13:00:00 14,8 6,2 - - 11 6 S 1026,1 25 18 0,0
23.04.2017 12:00:00 14,8 7,5 - - 9 5 S 1026,9 19 24 0,0
23.04.2017 11:00:00 12,6 6,2 - - 9 5 S 1027,3 20 30 0,0
23.04.2017 10:00:00 12,2 6,3 12,2 10,2 11 6 S 1027,6 17 18 0,0
23.04.2017 09:00:00 9,6 5,5 - - 13 7 SSE 1027,9 22 0 0,0
23.04.2017 08:00:00 7,7 5,0 - - 2 1 E 1027,9 29 0 0,0
23.04.2017 07:00:00 6,4 4,4 - - 2 1 E 1027,9 25 0 0,0
23.04.2017 06:00:00 6,0 4,3 - - 4 2 ENE 1027,7 21 0 0,0
23.04.2017 05:00:00 6,0 4,5 - - 8 4 ENE 1027,9 18 0 0,0
23.04.2017 04:00:00 5,6 4,6 - - 5 3 ENE 1027,9 14 0 0,0
23.04.2017 03:00:00 5,3 3,7 - - 2 1 NE 1028,0 14 0 0,0
23.04.2017 02:00:00 7,0 5,0 - - 8 4 ESE 1028,2 20 0 0,0
23.04.2017 01:00:00 5,4 3,9 - - 4 2 NE 1028,6 9 - 0,0
23.04.2017 00:00:00 5,4 4,0 - - 5 3 S 1028,3 20 0 0,0
22.04.2017 23:00:00 5,0 3,3 - - 4 2 ESE 1028,3 16 0 0,0
22.04.2017 22:00:00 7,2 4,8 - - 5 3 WSW 1027,9 28 0 0,0
22.04.2017 21:00:00 8,6 5,4 - - 8 4 SW 1027,5 45 0 0,0
22.04.2017 20:00:00 10,1 6,1 - - 9 5 SSW 1027,1 40 12 0,0
22.04.2017 19:00:00 11,6 6,5 - - 9 5 SW 1026,9 45 12 0,0
22.04.2017 18:00:00 13,1 4,5 - - 4 2 SSE 1026,9 50 12 0,0
22.04.2017 17:00:00 13,1 5,9 - - 9 5 E 1027,1 45 36 0,0
22.04.2017 16:00:00 13,3 5,2 - - 2 1 SE 1027,4 40 18 0,0
22.04.2017 15:00:00 14,0 6,2 - - 9 5 E 1027,8 45 42 0,0
22.04.2017 14:00:00 12,5 6,8 - - 8 4 NE 1028,4 40 54 0,0
22.04.2017 13:00:00 11,1 6,8 - - 11 6 NNE 1028,9 18 0 0,0
22.04.2017 12:00:00 12,1 7,2 - - 9 5 NW 1029,2 20 6 0,0
22.04.2017 11:00:00 11,0 5,7 - - 11 6 NNW 1029,3 25 0 0,0
22.04.2017 10:00:00 10,3 4,8 12,2 10,2 8 4 N 1029,2 35 12 0,0
22.04.2017 09:00:00 11,2 4,7 - - 9 5 N 1029,1 35 60 0,0
22.04.2017 08:00:00 10,7 4,7 - - 9 5 N 1028,9 40 60 0,0
22.04.2017 07:00:00 9,4 5,5 - - 11 6 N 1028,8 35 18 0,0
22.04.2017 06:00:00 8,4 5,4 - - 2 1 NW 1028,5 26 0 0,0
22.04.2017 05:00:00 10,0 6,0 - - 4 2 NNW 1028,3 30 0 0,0
22.04.2017 04:00:00 10,3 6,0 - - 4 2 NW 1028,4 35 0 0,0
22.04.2017 03:00:00 10,8 6,1 - - 5 3 WNW 1028,6 30 0 0,0
22.04.2017 02:00:00 10,9 5,9 - - 4 2 WNW 1029,0 35 0 0,0
22.04.2017 01:00:00 11,1 5,8 - - 4 2 W 1029,4 30 - 0,0
22.04.2017 00:00:00 11,4 5,8 - - 4 2 WNW 1029,6 35 0 0,0
21.04.2017 23:00:00 11,6 5,9 - - 4 2 WNW 1029,8 35 0 0,0
21.04.2017 22:00:00 11,8 5,8 - - 4 2 NW 1029,7 30 0 0,0
21.04.2017 21:00:00 12,2 6,0 - - 4 2 WNW 1029,8 45 0 0,0
21.04.2017 20:00:00 12,7 6,2 - - 4 2 WNW 1029,7 40 0 0,0
21.04.2017 19:00:00 13,3 6,1 - - 4 2 NNW 1029,7 35 0 0,0
21.04.2017 18:00:00 14,1 6,1 - - 5 3 NNW 1029,8 30 0 0,0
21.04.2017 17:00:00 14,1 5,8 - - 8 4 WNW 1030,1 45 0 0,0
21.04.2017 16:00:00 14,5 6,3 - - 8 4 W 1030,5 40 0 0,0
21.04.2017 15:00:00 14,6 6,3 - - 5 3 WNW 1031,0 50 0 0,0
21.04.2017 14:00:00 14,5 6,7 - - 8 4 NW 1031,3 40 0 0,0
21.04.2017 13:00:00 15,1 6,3 - - 8 4 W 1031,7 40 0 0,0
21.04.2017 12:00:00 14,6 6,4 - - 8 4 W 1032,3 40 0 0,0
21.04.2017 11:00:00 14,3 7,9 - - 5 3 W 1032,6 30 0 0,0
21.04.2017 10:00:00 13,1 8,4 12,0 10,2 5 3 WNW 1032,9 30 0 0,0
21.04.2017 09:00:00 12,3 8,2 - - 5 3 NW 1032,8 25 0 0,0
21.04.2017 08:00:00 10,6 6,9 - - 2 1 N 1032,8 27 0 0,0
21.04.2017 07:00:00 8,2 7,4 - - 2 1 N 1032,7 11 0 0,0
21.04.2017 06:00:00 6,7 6,6 - - 2 1 W 1032,5 5 0 0,0
21.04.2017 05:00:00 5,4 5,1 - - 2 1 SE 1032,8 3,7 0 0,0
21.04.2017 04:00:00 4,8 4,4 - - 2 1 S 1033,1 1,2 0 0,0

tt = temperature
td = dewpoint
tt -20cm = temperature -20cm
tt -100cm = temperature -100cm
ff = wind speed
dd = wind direction
ppp = reduced air pressure
vv = visibility
sd = sunshine duration
rr = precipitation

Next stations